Weather History for KTMB - February, 2013

Change the Weather History Date:

Saturday, February 23, 2013

  Actual Average (KMIA) Record (KMIA)
Temperature  
Mean Temperature 78 °F 71 °F  
Max Temperature 84 °F 79 °F 89 °F (1991)
Min Temperature 72 °F 63 °F 39 °F (1978)
Degree Days  
Heating Degree Days 0 1  
Month to date heating degree days 23  
Since 1 July heating degree days 113  
Cooling Degree Days 14 7  
Month to date cooling degree days 136  
Year to date cooling degree days 287  
Growing Degree Days 28 (Base 50)    
Moisture  
Dew Point 70 °F    
Average Humidity 80    
Maximum Humidity 97    
Minimum Humidity 60    
Precipitation  
Precipitation 0.00 in 0.08 in 1.96 in (2002)
Month to date precipitation 1.83  
Year to date precipitation 3.45  
Snow  
Snow 0.00 in - - ()
Month to date snowfall  
Since 1 July snowfall  
Snow Depth -    
Sea Level Pressure  
Sea Level Pressure 30.00 in    
Wind  
Wind Speed 8 mph (SSE)    
Max Wind Speed 13 mph    
Max Gust Speed 20 mph    
Visibility 10 miles    
Events      
T = Trace of Precipitation, MM = Missing Value Source: NWS Daily Summary

Daily Weather History Graph

Daily Weather History Graph

Search for Another Location

Airport or City:

Trip Planner

Search our weather history database for the weather conditions in past years. The results will help you decide how hot, cold, wet, or windy it might be!

Date:

Astronomy

Feb. 23, 2013 Rise Set
Actual Time 6:50 AM EST 6:20 PM EST
Civil Twilight 6:26 AM EST 6:43 PM EST
Nautical Twilight 6:00 AM EST 7:10 PM EST
Astronomical Twilight 5:33 AM EST 7:37 PM EST
Moon 4:35 PM EST (2/23) 5:03 AM EST (2/23)
Length of Visible Light 12h 16m
Length of Day
11h 30m
Waxing Gibbous, 95% of the Moon is Illuminated
Feb 23
Waxing Gibbous
Feb 25
Full
Mar 4
Last Quarter
Mar 11
New
Mar 19
First Quarter

Hourly Weather History & Observations

Time (EST) Temp. Heat Index Dew Point Humidity Pressure Visibility Wind Dir Wind Speed Gust Speed Precip Events Conditions
12:32 AM 73.4 °F - 71.6 °F 94% 30.05 in 10.0 mi ESE 9.2 mph - N/A   Mostly Cloudy
12:53 AM 73.9 °F - 71.1 °F 91% 30.04 in 10.0 mi SE 8.1 mph - N/A   Mostly Cloudy
1:24 AM 73.4 °F - 71.6 °F 94% 30.03 in 10.0 mi SE 9.2 mph - N/A   Scattered Clouds
1:53 AM 73.9 °F - 71.1 °F 91% 30.03 in 10.0 mi SE 8.1 mph - N/A   Partly Cloudy
2:53 AM 73.9 °F - 69.1 °F 85% 30.01 in 10.0 mi SE 9.2 mph - N/A   Clear
3:53 AM 73.0 °F - 69.1 °F 87% 30.00 in 10.0 mi SE 9.2 mph - N/A   Clear
4:53 AM 73.0 °F - 68.0 °F 84% 30.00 in 10.0 mi SE 8.1 mph - N/A   Clear
5:53 AM 73.0 °F - 68.0 °F 84% 30.00 in 10.0 mi SSE 8.1 mph - N/A   Clear
6:53 AM 73.0 °F - 69.1 °F 87% 30.01 in 10.0 mi SE 4.6 mph - N/A   Clear
7:53 AM 75.0 °F - 69.1 °F 82% 30.02 in 10.0 mi SSE 6.9 mph - N/A   Clear
8:53 AM 77.0 °F - 70.0 °F 79% 30.03 in 10.0 mi South 9.2 mph 18.4 mph N/A   Scattered Clouds
9:53 AM 80.1 °F 82.9 °F 69.1 °F 69% 30.04 in 10.0 mi SSE 10.4 mph - N/A   Partly Cloudy
10:53 AM 81.0 °F 84.1 °F 69.1 °F 67% 30.04 in 10.0 mi South 10.4 mph 17.3 mph N/A   Mostly Cloudy
11:00 AM 82.4 °F 86.3 °F 69.8 °F 66% 30.04 in 10.0 mi SSE 12.7 mph 17.3 mph N/A   Mostly Cloudy
11:53 AM 82.9 °F 86.5 °F 69.1 °F 63% 30.02 in 10.0 mi South 12.7 mph - N/A   Scattered Clouds
12:53 PM 82.0 °F 85.5 °F 69.1 °F 65% 29.99 in 10.0 mi South 10.4 mph 19.6 mph N/A   Mostly Cloudy
1:53 PM 84.0 °F 88.4 °F 70.0 °F 63% 29.97 in 10.0 mi SSW 11.5 mph 18.4 mph 0.00 in   Mostly Cloudy
2:53 PM 82.9 °F 85.8 °F 68.0 °F 60% 29.96 in 10.0 mi South 10.4 mph 17.3 mph N/A   Scattered Clouds
3:53 PM 82.0 °F 85.5 °F 69.1 °F 65% 29.94 in 10.0 mi South 10.4 mph - N/A   Partly Cloudy
4:53 PM 81.0 °F 84.1 °F 69.1 °F 67% 29.94 in 10.0 mi South 10.4 mph - N/A   Partly Cloudy
5:53 PM 79.0 °F - 70.0 °F 74% 29.95 in 10.0 mi SSW 8.1 mph 17.3 mph N/A   Partly Cloudy
6:53 PM 77.0 °F - 71.1 °F 82% 29.96 in 10.0 mi South 6.9 mph - N/A   Clear
7:53 PM 75.0 °F - 72.0 °F 90% 29.97 in 10.0 mi South 3.5 mph - N/A   Clear
8:53 PM 73.9 °F - 71.1 °F 91% 29.98 in 10.0 mi SSW 3.5 mph - N/A   Clear
9:53 PM 73.0 °F - 71.1 °F 93% 29.99 in 10.0 mi South 3.5 mph - N/A   Partly Cloudy
10:53 PM 73.0 °F - 71.1 °F 93% 29.99 in 10.0 mi Calm Calm - N/A   Clear
11:53 PM 72.0 °F - 71.1 °F 97% 29.99 in 10.0 mi Calm Calm - N/A   Clear